Timestamp[UTC];2m Lufttemperatur [degC] (tas);Stations-Luftdruck [Pa] (ps);relative Luftfeuchtigkeit [%] (hurs);spezifische Luftfeuchtigkeit [kg/kg] (huss);Niederschlagsmenge [mm] (pr);Windgeschwindigkeit in 2m [m/s] (sfcWind);Windrichtung [deg];maximale Windgeschwindigkeit [m/s] (wsgsmax);u-Windkomponente [m/s] (uas);v-Windkomponente [m/s] (vas);Sonneneinstrahlung [W/m2];Blitzrate [n];Blitzentfernung [km];Bodenfeuchte in 5cm Tiefe [vol%];Bodenfeuchte in 15cm Tiefe [vol%];Bodenfeuchte in 30cm Tiefe [vol%];Bodenfeuchte in 60cm Tiefe [vol%];Bodentemperatur in 5cm Tiefe [degC];Bodentemperatur in 15cm Tiefe [degC];Bodentemperatur in 30cm Tiefe [degC];Bodentemperatur in 60cm Tiefe [degC];Matrixpotential in 30cm Tiefe [kPa];Bodenfeuchte aus CRNS [vol%] (mrso);Neutronen Anzahl [N/h]
2022-05-01 00:00:00;8,5;102050;81;0,0055;0,0;1,3;350;2,0;1,25;-0,21;0;0;0;11,4;22,0;16,3;17,6;10,1;10,3;10,2;9,9;-49,1;12,6;1547
2022-05-01 01:00:00;8,2;102040;83;0,0055;0,0;0,9;120;1,9;0,93;0,01;0;0;0;11,4;21,9;16,3;17,6;10,0;10,2;10,1;9,9;-49,2;12,6;1684
2022-05-01 02:00:00;8,0;102030;85;0,0055;0,0;0,8;237;1,7;0,81;-0,04;0;0;0;11,4;21,9;16,3;17,6;9,9;10,2;10,1;9,9;-49,2;12,6;1631
2022-05-01 03:00:00;7,9;101993;85;0,0055;0,0;1,0;21;2,0;0,94;0,38;0;0;0;11,4;21,9;16,3;17,6;9,9;10,2;10,0;9,9;-49,2;12,7;1632
2022-05-01 04:00:00;7,8;101975;86;0,0056;0,0;1,0;18;1,8;0,92;0,28;3;0;0;11,5;21,9;16,3;17,6;9,8;10,2;10,0;9,9;-49,2;12,7;1671
2022-05-01 05:00:00;7,9;101983;86;0,0056;0,0;1,0;44;3,1;0,67;0,68;23;0;0;11,4;21,9;16,3;17,6;9,8;10,1;9,9;9,9;-49,3;12,6;1668
2022-05-01 06:00:00;8,4;102013;85;0,0057;0,0;1,3;45;2,3;0,93;0,95;80;0;0;11,5;21,9;16,3;17,6;9,9;10,1;9,9;9,9;-49,3;12,7;1609
2022-05-01 07:00:00;9,7;102020;79;0,0058;0,0;1,5;54;2,7;0,75;1,14;265;0;0;11,4;21,9;16,3;17,6;10,1;10,1;9,9;9,9;-49,5;12,6;1651
2022-05-01 08:00:00;11,3;102033;69;0,0057;0,0;1,1;70;2,9;0,33;0,94;331;0;0;11,4;21,8;16,3;17,6;10,6;10,1;10,0;9,9;-50,2;12,7;1619
2022-05-01 09:00:00;11,8;102030;62;0,0053;0,0;1,3;52;2,6;0,78;0,97;314;0;0;11,4;21,8;16,2;17,6;11,0;10,1;10,2;9,9;-51,3;12,7;1648
2022-05-01 10:00:00;12,2;102020;58;0,0051;0,0;1,4;45;3,5;0,93;0,73;312;0;0;11,4;21,8;16,2;17,6;11,4;10,1;10,4;9,9;-52,5;12,7;1698
2022-05-01 11:00:00;12,6;101990;57;0,0051;0,0;1,3;36;3,2;1,0;0,78;345;0;0;11,4;21,7;16,1;17,6;11,6;10,1;10,5;9,9;-53,7;12,6;1683
2022-05-01 12:00:00;12,8;101943;55;0,005;0,0;1,5;46;3,5;1,01;1,1;287;0;0;11,4;21,7;16,1;17,6;11,9;10,2;10,7;9,9;-55,0;12,8;1613
2022-05-01 13:00:00;13,0;101907;56;0,0051;0,0;1,7;76;4,0;0,31;1,45;347;0;0;11,3;21,7;16,1;17,6;12,1;10,2;10,9;9,9;-56,4;12,7;1624
2022-05-01 14:00:00;13,2;101870;55;0,0051;0,0;1,7;50;3,8;1,01;1,18;259;0;0;11,3;21,6;16,0;17,6;12,2;10,3;11,0;9,9;-57,6;12,9;1674
2022-05-01 15:00:00;13,3;101835;55;0,0051;0,0;1,3;104;2,9;-0,36;1,15;290;0;0;11,3;21,6;16,0;17,6;12,3;10,4;11,1;9,9;-58,8;13,0;1716
2022-05-01 16:00:00;13,4;101817;54;0,0051;0,0;1,4;61;2,5;0,59;1,1;112;0;0;11,3;21,6;16,0;17,6;12,2;10,4;11,2;9,9;-59,9;13,0;1686
2022-05-01 17:00:00;13,1;101787;54;0,005;0,0;1,3;18;2,3;1,26;0,43;89;0;0;11,3;21,5;15,9;17,6;12,0;10,5;11,2;9,9;-60,6;13,1;1651
2022-05-01 18:00:00;12,7;101783;56;0,005;0,0;1,1;32;1,8;0,96;0,61;49;0;0;11,3;21,5;15,9;17,6;11,8;10,6;11,2;9,9;-61,0;13,2;1710
2022-05-01 19:00:00;11,2;101807;61;0,005;0,0;0,9;236;1,5;0,86;-0,02;2;0;0;11,3;21,5;15,9;17,6;11,4;10,6;11,2;10,0;-61,0;13,1;1704
2022-05-01 20:00:00;9,9;101837;67;0,005;0,0;0,8;352;1,4;0,81;-0,1;0;0;0;11,3;21,5;15,9;17,6;10,9;10,6;11,0;10,0;-61,0;13,1;1685
2022-05-01 21:00:00;9,2;101830;71;0,005;0,0;0,7;12;1,1;0,71;0,13;0;0;0;11,3;21,5;15,9;17,6;10,6;10,6;10,9;10,0;-60,9;13,1;1663
2022-05-01 22:00:00;9,0;101800;73;0,0051;0,0;0,9;7;1,4;0,94;0,12;0;0;0;11,3;21,5;15,9;17,6;10,3;10,6;10,7;10,0;-60,9;13,1;1682
2022-05-01 23:00:00;9,0;101773;74;0,0052;0,0;0,8;30;1,6;0,71;0,43;0;0;0;11,3;21,5;15,9;17,6;10,2;10,6;10,6;10,0;-60,9;13,2;1666
2022-05-02 00:00:00;8,8;101750;76;0,0052;0,0;1,2;8;1,7;1,15;0,15;0;0;0;11,3;21,4;15,9;17,6;10,1;10,5;10,4;10,0;-60,8;13,2;1627
2022-05-02 01:00:00;8,5;101713;77;0,0053;0,0;1,1;18;1,8;1,0;0,28;0;0;0;11,3;21,4;15,9;17,6;10,0;10,5;10,3;10,1;-60,8;13,1;1626
2022-05-02 02:00:00;8,3;101697;79;0,0053;0,0;1,1;13;1,8;1,06;0,26;0;0;0;11,3;21,4;15,9;17,6;9,9;10,4;10,3;10,1;-60,8;12,9;1627
2022-05-02 03:00:00;7,6;101667;80;0,0051;0,0;1,0;13;1,6;1,0;0,23;0;0;0;11,3;21,4;15,9;17,6;9,7;10,4;10,2;10,1;-60,8;12,9;1682
2022-05-02 04:00:00;6,9;101627;84;0,0051;0,0;1,1;25;1,9;0,97;0,4;14;0;0;11,3;21,4;15,9;17,6;9,5;10,4;10,1;10,1;-60,8;12,9;1669
2022-05-02 05:00:00;7,9;101627;83;0,0054;0,0;1,0;35;1,8;0,76;0,59;90;0;0;11,3;21,4;15,9;17,6;9,5;10,3;10,0;10,1;-60,7;12,9;1641
2022-05-02 06:00:00;10,2;101620;76;0,0058;0,0;2,1;54;3,6;1,2;1,72;243;0;0;11,3;21,4;15,9;17,6;9,6;10,3;9,9;10,1;-60,8;12,8;1750
2022-05-02 07:00:00;12,2;101610;67;0,0059;0,0;2,2;55;3,8;1,23;1,77;380;0;0;11,3;21,4;15,9;17,6;9,9;10,2;9,9;10,1;-61,2;12,9;1684
2022-05-02 08:00:00;13,8;101620;60;0,0058;0,0;2,6;54;4,5;1,47;2,08;484;0;0;11,3;21,3;15,9;17,6;10,3;10,2;10,0;10,1;-62,2;12,9;1706
2022-05-02 09:00:00;15,0;101603;54;0,0057;0,0;3,2;55;5,6;1,79;2,6;571;0;0;11,2;21,3;15,8;17,6;10,9;10,2;10,1;10,1;-63,8;13,0;1677
2022-05-02 10:00:00;16,1;101560;51;0,0057;0,0;2,4;45;5,5;1,63;1,63;649;0;0;11,2;21,2;15,7;17,6;11,6;10,2;10,4;10,1;-65,5;13,0;1684
2022-05-02 11:00:00;17,2;101520;49;0,0059;0,0;2,1;28;5,2;1,82;0,98;715;0;0;11,1;21,2;15,7;17,6;12,5;10,2;10,7;10,1;-67,5;13,0;1704
2022-05-02 12:00:00;17,9;101480;46;0,0058;0,0;2,0;39;5,0;1,34;0,86;703;0;0;11,1;21,1;15,6;17,6;13,3;10,3;11,1;10,1;-69,6;13,0;1790
2022-05-02 13:00:00;17,9;101443;44;0,0055;0,0;2,1;117;4,3;2,02;-0,13;400;0;0;11,0;21,1;15,5;17,5;13,5;10,4;11,5;10,1;-71,6;13,0;1767
2022-05-02 14:00:00;18,5;101393;43;0,0057;0,0;1,8;64;4,8;0,82;1,1;479;0;0;11,0;21,0;15,5;17,5;13,7;10,5;11,7;10,1;-73,5;12,9;1780
2022-05-02 15:00:00;18,2;101365;43;0,0055;0,0;2,2;18;4,6;2,13;0,7;260;0;0;11,0;21,0;15,4;17,5;13,6;10,6;11,9;10,1;-75,3;12,8;1711
2022-05-02 16:00:00;18,2;101340;43;0,0055;0,0;2,4;12;5,0;2,28;0,51;296;0;0;10,9;21,0;15,4;17,5;13,4;10,8;12,0;10,1;-77,0;12,7;1760
2022-05-02 17:00:00;17,5;101317;44;0,0054;0,0;3,1;119;5,2;3,11;-0,06;166;0;0;10,9;20,9;15,3;17,5;13,2;10,9;12,0;10,1;-78,5;12,6;1787
2022-05-02 18:00:00;16,0;101350;49;0,0055;0,0;2,2;354;3,8;2,16;-0,22;44;0;0;10,9;20,9;15,3;17,5;12,8;10,9;12,0;10,1;-79,5;12,6;1741
2022-05-02 19:00:00;14,0;101387;53;0,0052;0,0;1,8;344;3,1;1,76;-0,48;1;0;0;10,9;20,9;15,3;17,5;12,3;11,0;11,9;10,1;-79,8;12,6;1695
2022-05-02 20:00:00;12,8;101440;57;0,0051;0,0;3,1;126;5,9;2,99;0,46;0;0;0;10,9;20,9;15,3;17,5;11,9;11,0;11,7;10,1;-79,7;12,5;1717
2022-05-02 21:00:00;11,5;101483;61;0,0051;0,0;2,6;21;5,1;2,39;0,97;0;0;0;10,9;20,8;15,3;17,5;11,6;11,1;11,6;10,1;-79,6;12,6;1706
2022-05-02 22:00:00;10,0;101480;65;0,0049;0,0;1,8;13;3,1;1,74;0,42;0;0;0;10,9;20,8;15,3;17,5;11,3;11,1;11,4;10,2;-79,5;12,7;1728
2022-05-02 23:00:00;8,9;101507;67;0,0047;0,0;1,7;9;2,5;1,63;0,29;0;0;0;10,9;20,8;15,3;17,5;11,2;11,0;11,3;10,2;-79,5;12,7;1678
2022-05-03 00:00:00;7,8;101487;67;0,0044;0,0;1,6;8;2,5;1,58;0,25;0;0;0;10,9;20,8;15,3;17,5;10,8;11,0;11,1;10,2;-79,2;12,8;1699
2022-05-03 01:00:00;7,0;101473;70;0,0043;0,0;1,2;12;1,9;1,16;0,25;0;0;0;10,9;20,8;15,3;17,5;10,5;11,0;11,0;10,2;-79,2;13,0;1735
2022-05-03 02:00:00;6,0;101453;75;0,0043;0,0;1,3;9;2,2;1,3;0,21;0;0;0;10,9;20,8;15,3;17,5;10,2;10,9;10,8;10,3;-79,0;13,0;1703
2022-05-03 03:00:00;5,3;101460;78;0,0043;0,0;0,8;240;1,6;0,74;0,02;0;0;0;10,9;20,8;15,3;17,5;9,9;10,9;10,6;10,3;-79,0;13,0;1776
2022-05-03 04:00:00;4,7;101463;85;0,0044;0,0;1,0;233;1,7;0,96;-0,09;33;0;0;10,9;20,8;15,3;17,5;9,6;10,8;10,5;10,3;-79,0;13,0;1788
2022-05-03 05:00:00;6,9;101463;82;0,005;0,0;0,9;45;1,9;0,61;0,52;132;0;0;10,9;20,7;15,3;17,5;9,6;10,7;10,3;10,3;-78,9;13,0;1729
2022-05-03 06:00:00;8,9;101480;74;0,0051;0,0;2,1;20;3,6;1,96;0,72;236;0;0;10,9;20,7;15,3;17,5;9,7;10,7;10,2;10,3;-78,9;13,0;1739
2022-05-03 07:00:00;10,8;101500;61;0,0049;0,0;2,5;26;4,4;2,21;1,12;355;0;0;10,9;20,7;15,3;17,5;9,9;10,6;10,2;10,3;-79,8;13,0;1785
2022-05-03 08:00:00;12,5;101537;54;0,0048;0,0;2,6;43;4,8;1,8;1,69;487;0;0;10,8;20,7;15,2;17,5;10,3;10,5;10,2;10,3;-81,4;13,0;1675
2022-05-03 09:00:00;14,1;101540;52;0,0051;0,0;2,6;23;5,1;2,41;1,05;592;0;0;10,8;20,6;15,2;17,5;10,9;10,5;10,3;10,3;-83,9;12,9;1644
2022-05-03 10:00:00;15,3;101517;49;0,0052;0,0;2,3;138;5,0;1,89;0,58;664;0;0;10,8;20,6;15,1;17,5;11,6;10,5;10,5;10,3;-86,8;12,7;1679
2022-05-03 11:00:00;16,2;101483;48;0,0055;0,0;2,2;152;5,6;1,66;0,95;662;0;0;10,8;20,5;15,1;17,5;12,5;10,5;10,9;10,3;-89,9;12,7;1597
2022-05-03 12:00:00;16,4;101433;49;0,0056;0,0;3,0;239;5,7;2,99;-0,04;510;0;0;10,7;20,5;15,0;17,5;13,0;10,6;11,2;10,3;-92,7;12,7;1712
2022-05-03 13:00:00;17,1;101400;50;0,006;0,0;2,8;115;5,4;2,56;-0,08;592;0;0;10,7;20,4;14,9;17,5;13,2;10,6;11,5;10,3;-95,2;12,5;1764
2022-05-03 14:00:00;16,2;101390;54;0,0061;0,0;3,4;20;6,6;3,16;1,2;196;0;0;10,6;20,4;14,9;17,5;13,4;10,7;11,7;10,3;-97,6;12,6;1739
2022-05-03 15:00:00;15,9;101373;59;0,0065;0,0;3,4;25;5,7;3,0;1,32;248;0;0;10,6;20,3;14,9;17,5;13,1;10,8;11,9;10,3;-99,4;12,5;1717
2022-05-03 16:00:00;15,4;101373;60;0,0065;0,0;3,4;13;5,9;3,26;0,76;161;0;0;10,6;20,3;14,8;17,4;13,0;10,9;11,9;10,3;-101,0;12,6;1720
2022-05-03 17:00:00;14,6;101367;64;0,0066;0,0;3,4;125;5,5;3,35;0,31;85;0;0;10,6;20,3;14,8;17,4;12,7;11,0;11,9;10,3;-102,0;12,7;1751
2022-05-03 18:00:00;13,3;101393;68;0,0064;0,0;3,5;3;5,5;3,46;0,19;23;0;0;10,6;20,3;14,8;17,4;12,4;11,1;11,9;10,3;-102,2;12,6;1723
2022-05-03 19:00:00;12,4;101437;70;0,0062;0,0;2,1;2;3,9;2,11;0,1;1;0;0;10,6;20,2;14,8;17,4;12,2;11,1;11,8;10,3;-102,2;12,6;1745
2022-05-03 20:00:00;10,9;101497;73;0,0058;0,0;2,2;6;4,2;2,19;0,21;0;0;0;10,6;20,2;14,8;17,4;11,9;11,1;11,7;10,4;-102,1;12,7;1774
2022-05-03 21:00:00;9,8;101515;74;0,0055;0,0;1,9;15;3,4;1,81;0,5;0;0;0;10,6;20,2;14,8;17,4;11,6;11,2;11,6;10,4;-102,0;12,7;1817
2022-05-03 22:00:00;9,3;101547;76;0,0054;0,0;1,9;16;3,3;1,77;0,51;0;0;0;10,6;20,2;14,8;17,4;11,4;11,2;11,5;10,4;-101,9;12,6;1694
2022-05-03 23:00:00;8,4;101553;78;0,0053;0,0;1,8;18;3,1;1,69;0,57;0;0;0;10,6;20,2;14,8;17,4;11,2;11,1;11,3;10,4;-101,7;12,5;1708
2022-05-04 00:00:00;7,1;101537;82;0,0051;0,0;1,7;12;2,7;1,62;0,36;0;0;0;10,6;20,2;14,8;17,4;10,9;11,1;11,2;10,4;-101,8;12,4;1780
2022-05-04 01:00:00;6,4;101530;84;0,0049;0,0;1,9;12;3,5;1,9;0,42;0;0;0;10,6;20,2;14,8;17,4;10,7;11,1;11,1;10,4;-101,6;12,4;1673
2022-05-04 02:00:00;6,6;101530;84;0,0051;0,0;1,8;12;3,2;1,74;0,38;0;0;0;10,6;20,2;14,8;17,4;10,5;11,0;10,9;10,4;-101,5;12,4;1788
2022-05-04 03:00:00;6,7;101513;84;0,005;0,0;2,0;16;3,6;1,9;0,55;0;0;0;10,6;20,1;14,8;17,4;10,4;11,0;10,8;10,5;-101,4;12,3;1706
2022-05-04 04:00:00;6,2;101485;86;0,005;0,0;1,3;19;2,6;1,26;0,44;12;0;0;10,6;20,1;14,8;17,4;10,3;10,9;10,7;10,5;-101,4;12,2;1703
2022-05-04 05:00:00;6,7;101493;86;0,0052;0,0;1,5;31;2,8;1,27;0,72;90;0;0;10,6;20,1;14,8;17,4;10,2;10,9;10,6;10,5;-101,3;12,2;1774
2022-05-04 06:00:00;8,2;101480;82;0,0055;0,0;2,2;30;4,1;1,87;1,08;180;0;0;10,6;20,1;14,8;17,4;10,3;10,8;10,5;10,5;-101,5;12,1;1710
2022-05-04 07:00:00;9,8;101500;76;0,0056;0,0;2,2;41;4,2;1,57;1,32;359;0;0;10,6;20,1;14,8;17,4;10,5;10,8;10,5;10,5;-102,2;12,1;1741
2022-05-04 08:00:00;11,2;101500;70;0,0058;0,0;2,2;14;4,8;2,09;0,52;501;0;0;10,6;20,1;14,8;17,4;10,8;10,7;10,6;10,5;-103,7;12,1;1613
2022-05-04 09:00:00;12,7;101483;65;0,0059;0,0;1,7;123;4,3;1,66;0,12;618;0;0;10,5;20,0;14,7;17,4;11,3;10,7;10,7;10,5;-106,3;12,1;1749
2022-05-04 10:00:00;13,8;101465;61;0,0059;0,0;1,6;296;3,8;0,68;-1,39;690;0;0;10,5;20,0;14,7;17,4;12,0;10,7;10,9;10,5;-109,4;12,2;1691
2022-05-04 11:00:00;14,5;101430;55;0,0056;0,0;1,6;311;4,7;1,04;-1,15;718;0;0;10,5;19,9;14,6;17,4;12,8;10,7;11,1;10,5;-113,0;12,1;1688
2022-05-04 12:00:00;15,2;101393;52;0,0056;0,0;2,2;338;5,1;1,92;-0,73;663;0;0;10,4;19,9;14,5;17,4;13,6;10,8;11,5;10,5;-116,9;12,2;1692
2022-05-04 13:00:00;15,8;101373;50;0,0055;0,0;2,3;327;5,9;1,85;-1,2;653;0;0;10,4;19,8;14,5;17,4;13,9;10,9;11,8;10,5;-121,0;12,2;1798
2022-05-04 14:00:00;16,4;101340;47;0,0054;0,0;2,6;345;6,5;2,46;-0,62;557;0;0;10,4;19,8;14,4;17,4;14,0;11,0;12,1;10,5;-125,2;12,1;1807
2022-05-04 15:00:00;16,7;101327;44;0,0051;0,0;2,6;330;6,0;2,22;-1,23;440;0;0;10,3;19,7;14,4;17,4;13,6;11,1;12,2;10,5;-128,2;12,2;1848
2022-05-04 16:00:00;16,4;101310;45;0,0052;0,0;3,2;182;6,1;3,19;0,11;312;0;0;10,3;19,7;14,4;17,4;13,5;11,2;12,3;10,5;-131,5;12,1;1747
2022-05-04 17:00:00;16,0;101317;46;0,0052;0,0;2,9;233;5,3;2,82;-0,31;191;0;0;10,3;19,6;14,3;17,4;13,2;11,3;12,3;10,5;-134,6;12,1;1846
2022-05-04 18:00:00;14,2;101343;51;0,0051;0,0;2,2;3;3,8;2,19;0,12;56;0;0;10,3;19,6;14,3;17,3;12,8;11,3;12,2;10,5;-136,8;12,1;1763
2022-05-04 19:00:00;12,4;101400;57;0,005;0,0;1,0;353;1,9;0,98;-0,1;1;0;0;10,3;19,6;14,3;17,3;12,3;11,4;12,1;10,5;-136,8;12,1;1762
2022-05-04 20:00:00;12,0;101460;60;0,0051;0,0;1,2;6;2,1;1,22;0,14;0;0;0;10,3;19,6;14,3;17,4;12,0;11,4;12,0;10,5;-135,2;12,1;1781
2022-05-04 21:00:00;11,0;101487;64;0,0051;0,0;1,0;2;1,7;0,98;0,04;0;0;0;10,3;19,6;14,3;17,3;11,8;11,4;11,8;10,5;-135,4;12,0;1727
2022-05-04 22:00:00;9,4;101527;69;0,005;0,0;0,8;334;1,4;0,69;-0,25;0;0;0;10,3;19,5;14,3;17,3;11,4;11,4;11,7;10,6;-135,7;11,8;1705
2022-05-04 23:00:00;8,5;101555;74;0,005;0,0;0,5;264;1,1;-0,06;-0,48;0;0;0;10,3;19,5;14,3;17,3;11,0;11,4;11,5;10,6;-134,4;11,8;1686
2022-05-05 00:00:00;7,9;101560;82;0,0053;0,0;0,3;270;0,7;-0,02;-0,16;0;0;0;10,3;19,5;14,3;17,3;10,9;11,3;11,3;10,6;-134,4;11,7;1752
2022-05-05 01:00:00;7,0;101567;85;0,0052;0,0;0,4;243;0,6;-0,16;-0,35;0;0;0;10,3;19,5;14,3;17,3;10,6;11,3;11,2;10,6;-133,6;11,5;1721
2022-05-05 02:00:00;5,9;101583;90;0,0051;0,0;0,3;231;0,8;-0,14;-0,23;0;0;0;10,3;19,5;14,3;17,3;10,3;11,2;11,0;10,6;-133,3;11,4;1697
2022-05-05 03:00:00;5,7;101590;93;0,0053;0,0;0,4;289;1,0;0,13;-0,32;0;0;0;10,3;19,5;14,3;17,3;10,1;11,2;10,8;10,6;-133,2;11,5;1786
2022-05-05 04:00:00;5,5;101610;95;0,0052;0,0;0,4;306;0,7;0,21;-0,18;20;0;0;10,3;19,5;14,3;17,3;10,0;11,1;10,7;10,6;-133,0;11,5;1676
2022-05-05 05:00:00;7,1;101650;97;0,006;0,0;0,4;181;0,8;-0,33;-0,02;135;0;0;10,3;19,5;14,3;17,3;10,0;11,0;10,6;10,6;-133,0;11,5;1755
2022-05-05 06:00:00;10,4;101700;84;0,0065;0,0;0,4;126;0,9;-0,08;0,08;207;0;0;10,3;19,5;14,3;17,3;10,3;11,0;10,5;10,7;-132,9;11,6;1666
2022-05-05 07:00:00;12,7;101720;72;0,0065;0,0;0,9;76;2,3;0,68;0,05;314;0;0;10,3;19,5;14,3;17,3;10,7;10,9;10,5;10,6;-134,0;11,6;1684
2022-05-05 08:00:00;14,6;101760;62;0,0063;0,0;1,4;27;3,3;1,18;0,56;481;0;0;10,3;19,4;14,3;17,3;11,2;10,9;10,7;10,6;-138,6;11,6;1674
2022-05-05 09:00:00;15,4;101795;56;0,006;0,0;1,3;13;3,3;1,26;0,3;476;0;0;10,3;19,4;14,2;17,3;11,8;10,8;10,9;10,7;-144,0;11,7;1848
2022-05-05 10:00:00;16,6;101803;54;0,0063;0,0;1,6;127;3,6;0,74;0,59;663;0;0;10,2;19,3;14,2;17,3;12,4;10,9;11,1;10,7;-151,5;11,7;1671
2022-05-05 11:00:00;17,7;101813;51;0,0063;0,0;1,7;328;5,8;1,44;-0,87;671;0;0;10,2;19,3;14,1;17,3;13,3;10,9;11,4;10,6;-160,7;11,8;1755
2022-05-05 12:00:00;18,3;101800;47;0,006;0,0;1,8;188;4,6;0,76;-0,79;554;0;0;10,2;19,2;14,1;17,3;14,1;11,0;11,8;10,6;-169,4;11,7;1741
2022-05-05 13:00:00;18,1;101797;45;0,0058;0,0;1,3;155;3,5;0,86;0,13;311;0;0;10,1;19,2;14,0;17,3;14,2;11,1;12,2;10,6;-176,7;11,8;1816
2022-05-05 14:00:00;18,2;101807;43;0,0055;0,0;1,8;120;4,1;1,81;0,03;198;0;0;10,1;19,1;14,0;17,3;14,0;11,2;12,4;10,6;-183,1;11,9;1687
2022-05-05 15:00:00;18,0;101815;44;0,0055;0,0;2,2;25;3,7;1,93;0,89;120;0;0;10,1;19,1;14,0;17,3;13,8;11,3;12,5;10,6;-188,3;11,9;1728
2022-05-05 16:00:00;17,8;101823;45;0,0056;0,0;1,6;131;3,0;1,48;0,28;100;0;0;10,1;19,0;14,0;17,3;13,6;11,4;12,5;10,6;-192,4;12,1;1720
2022-05-05 17:00:00;17,5;101837;48;0,0058;0,0;2,2;351;3,7;2,15;-0,32;71;0;0;10,1;19,0;14,0;17,2;13,4;11,5;12,5;10,6;-194,8;12,1;1679
2022-05-05 18:00:00;16,7;101863;52;0,0061;0,0;1,1;342;2,1;1,09;-0,32;22;0;0;10,1;19,0;14,0;17,2;13,2;11,6;12,5;10,6;-196,0;12,2;1671
2022-05-05 19:00:00;15,0;101923;59;0,0062;0,0;0,6;332;1,0;0,53;-0,27;2;0;0;10,1;19,0;14,0;17,2;12,9;11,6;12,4;10,7;-193,2;12,3;1637
2022-05-05 20:00:00;12,6;101987;68;0,006;0,0;0,7;292;1,1;0,14;-0,61;0;0;0;10,1;19,0;13,9;17,2;12,4;11,6;12,3;10,7;-193,4;12,3;1607
2022-05-05 21:00:00;10,6;102030;77;0,006;0,0;0,4;304;0,7;0,17;-0,26;0;0;0;10,1;18,9;13,9;17,2;12,0;11,7;12,1;10,7;-192,8;12,4;1642
2022-05-05 22:00:00;9,3;102053;83;0,006;0,0;0,3;271;0,8;0,01;-0,33;0;0;0;10,1;18,9;13,9;17,3;11,6;11,6;11,9;10,7;-192,7;12,7;1599
2022-05-05 23:00:00;8,4;102060;87;0,0059;0,0;0,5;244;0,8;-0,19;-0,5;0;0;0;10,0;18,9;13,9;17,2;11,2;11,6;11,7;10,7;-192,4;12,8;1652
2022-05-06 00:00:00;7,4;102087;91;0,0057;0,0;0,6;277;1,0;0,01;-0,56;0;0;0;10,0;18,9;13,9;17,3;10,9;11,6;11,5;10,8;-189,6;12,9;1573
2022-05-06 01:00:00;7,1;102097;93;0,0057;0,0;0,8;256;1,3;-0,18;-0,82;0;0;0;10,0;18,9;13,9;17,3;10,7;11,5;11,4;10,8;-190,3;12,9;1592
2022-05-06 02:00:00;6,2;102093;95;0,0055;0,0;0,3;245;0,7;-0,15;-0,29;0;0;0;10,0;18,9;13,9;17,3;10,5;11,4;11,2;10,8;-187,9;13,0;1574
2022-05-06 03:00:00;5,8;102085;96;0,0054;0,0;0,4;254;1,0;-0,1;-0,42;0;0;0;10,0;18,9;13,9;17,2;10,2;11,4;11,0;10,8;-187,6;13,0;1613
2022-05-06 04:00:00;5,6;102073;96;0,0053;0,0;0,5;265;1,0;-0,05;-0,48;15;0;0;10,0;18,9;13,9;17,2;10,0;11,3;10,9;10,8;-187,2;12,8;1554
2022-05-06 05:00:00;7,1;102107;100;0,0061;0,0;0,4;247;0,8;-0,16;-0,41;110;0;0;10,0;18,9;13,9;17,2;10,0;11,2;10,7;10,8;-186,9;12,6;1638
2022-05-06 06:00:00;11,0;102133;98;0,0078;0,02;0,8;258;1,2;-0,13;-0,72;235;0;0;10,0;18,9;13,9;17,2;10,3;11,2;10,7;10,8;-187,8;12,3;1521
2022-05-06 07:00:00;14,2;102137;84;0,0083;0,0;0,9;276;1,9;0,11;-0,86;347;0;0;10,0;18,9;13,9;17,2;10,8;11,1;10,7;10,8;-187,8;12,2;1571
2022-05-06 08:00:00;16,2;102150;73;0,0082;0,0;1,9;316;4,1;1,35;-1,14;449;0;0;10,0;18,8;13,9;17,2;11,2;11,1;10,8;10,8;-193,9;12,3;1582
2022-05-06 09:00:00;17,2;102157;68;0,0081;0,0;2,5;305;5,4;1,43;-2,0;563;0;0;10,0;18,8;13,9;17,2;11,8;11,0;11,0;10,8;-204,7;12,2;1520
2022-05-06 10:00:00;17,7;102143;64;0,0079;0,0;2,3;295;5,1;0,95;-1,97;545;0;0;10,0;18,7;13,8;17,2;12,5;11,0;11,2;10,8;-212,7;12,3;1600
2022-05-06 11:00:00;18,6;102110;57;0,0075;0,0;2,7;281;6,1;0,51;-2,59;652;0;0;10,0;18,7;13,8;17,2;13,1;11,1;11,5;10,8;-224,4;12,2;1643
2022-05-06 12:00:00;19,4;102073;52;0,0072;0,0;2,4;300;5,2;1,1;-1,92;627;0;0;10,0;18,6;13,7;17,2;14,0;11,1;11,9;10,8;-234,1;12,4;1666
2022-05-06 13:00:00;19,9;102027;47;0,0067;0,0;2,3;311;4,9;1,51;-1,71;579;0;0;9,9;18,6;13,7;17,2;14,3;11,2;12,2;10,8;-241,7;12,5;1715
2022-05-06 14:00:00;20,7;102013;44;0,0066;0,0;2,4;317;6,0;1,76;-1,64;563;0;0;9,9;18,5;13,6;17,2;14,6;11,3;12,5;10,8;-256,0;12,6;1715
2022-05-06 15:00:00;20,8;101985;42;0,0064;0,0;2,3;293;5,9;0,86;-2,08;474;0;0;9,9;18,5;13,6;17,2;14,3;11,4;12,7;10,8;-264,6;12,6;1823
2022-05-06 16:00:00;20,6;101950;43;0,0064;0,0;2,0;276;4,5;0,22;-2,02;320;0;0;9,9;18,4;13,6;17,1;14,3;11,6;12,8;10,8;-270,2;12,6;1930
2022-05-06 17:00:00;20,1;101913;43;0,0062;0,0;1,3;260;2,9;-0,24;-1,22;168;0;0;9,8;18,4;13,6;17,1;14,2;11,6;12,8;10,8;-282,0;12,7;1901
2022-05-06 18:00:00;18,1;101927;49;0,0062;0,0;1,1;262;1,7;-0,13;-1,07;22;0;0;9,8;18,3;13,6;17,1;13,8;11,7;12,9;10,8;-287,4;13,0;1760
2022-05-06 19:00:00;16,0;101955;54;0,006;0,0;0,5;254;0,9;-0,12;-0,46;0;0;0;9,8;18,3;13,6;17,1;13,3;11,8;12,8;10,8;-286,9;12,9;1577
2022-05-06 20:00:00;14,5;101960;62;0,0063;0,0;0,7;255;1,0;-0,19;-0,72;0;0;0;9,8;18,3;13,6;17,1;12,9;11,9;12,6;10,8;-292,0;13,0;1698
2022-05-06 21:00:00;12,9;101943;71;0,0065;0,0;0,5;247;0,8;-0,16;-0,41;0;0;0;9,8;18,3;13,6;17,1;12,5;11,9;12,5;10,8;-293,8;13,1;1641
2022-05-06 22:00:00;10,9;101963;87;0,0069;3,5;0,9;272;1,9;-0,01;-0,82;0;0;0;10,3;18,3;13,6;17,1;12,1;11,9;12,3;10,9;-292,6;13,2;1642
2022-05-06 23:00:00;9,8;101950;97;0,0071;6,72;0,6;219;1,3;-0,36;-0,32;0;0;0;12,4;18,3;13,9;17,1;11,5;11,9;12,1;10,9;-286,5;13,3;1539
2022-05-07 00:00:00;9,5;101923;97;0,0071;4,03;0,4;212;0,8;-0,3;-0,2;0;0;0;15,2;18,4;14,7;17,1;11,0;11,8;11,8;10,9;-285,2;13,3;1497
2022-05-07 01:00:00;9,2;101895;98;0,007;0,07;nan;nan;nan;nan;nan;0;0;0;17,1;18,5;16,3;17,1;11,0;11,8;11,5;11,0;-287,8;13,5;1531
2022-05-07 02:00:00;8,7;101893;99;0,0068;0,08;nan;nan;nan;nan;nan;0;0;0;17,6;18,7;17,0;17,1;11,0;11,7;11,4;11,0;-282,6;13,5;1641
2022-05-07 03:00:00;8,4;101890;99;0,0067;0,1;nan;nan;nan;nan;nan;0;0;0;17,9;18,7;17,5;17,1;10,9;11,6;11,3;11,0;-279,7;13,6;1567
2022-05-07 04:00:00;8,5;101870;100;0,0068;0,0;nan;nan;nan;nan;nan;10;0;0;18,1;18,8;17,9;17,1;10,9;11,5;11,2;11,0;-279,7;13,8;1519
2022-05-07 05:00:00;9,4;101900;100;0,0072;0,0;nan;nan;nan;nan;nan;95;0;0;18,2;18,8;18,3;17,1;10,9;11,5;11,2;11,0;-274,8;14,3;1450
2022-05-07 06:00:00;11,1;101920;100;0,0081;0,0;0,8;203;1,2;-0,75;-0,32;204;0;0;18,4;18,9;18,6;17,1;11,2;11,4;11,2;11,0;-271,5;14,8;1571
2022-05-07 07:00:00;13,2;101933;94;0,0088;0,0;1,6;238;3,2;-0,62;-1,42;337;0;0;18,5;18,9;18,8;17,1;11,5;11,4;11,2;11,0;-265,7;15,1;1587
2022-05-07 08:00:00;17,4;101933;72;0,0088;0,0;2,3;254;4,8;-0,6;-2,2;439;0;0;18,5;18,9;19,0;17,1;11,9;11,4;11,3;11,0;-261,5;15,1;1488
2022-05-07 09:00:00;18,7;101947;64;0,0085;0,0;2,2;264;4,6;-0,2;-2,12;548;0;0;18,5;18,9;19,1;17,1;12,3;11,3;11,5;11,0;-260,5;15,3;1487
2022-05-07 10:00:00;19,6;101943;60;0,0083;0,0;2,4;270;5,3;-0,03;-2,33;580;0;0;18,5;19,0;19,2;17,1;12,9;11,4;11,7;11,0;-255,5;15,5;1568
2022-05-07 11:00:00;20,1;101920;56;0,0081;0,0;2,4;319;5,3;1,85;-1,52;512;0;0;18,4;19,0;19,3;17,1;13,4;11,4;12,0;11,0;-257,4;15,6;1672
2022-05-07 12:00:00;20,9;101873;53;0,0081;0,0;1,7;306;4,6;0,93;-1,11;675;0;0;18,4;19,0;19,4;17,1;13,9;11,5;12,3;11,0;-256,0;15,5;1548
2022-05-07 13:00:00;21,0;101840;53;0,008;0,0;2,8;291;6,8;1,47;-1,6;478;0;0;18,3;19,0;19,4;17,1;14,5;11,6;12,6;11,0;-256,5;15,6;1732
2022-05-07 14:00:00;16,5;101875;75;0,0086;0,15;4,4;174;7,8;4,34;-0,46;160;3;23;18,2;19,0;19,5;17,1;14,3;11,7;12,9;11,0;-255,4;15,5;1630
2022-05-07 15:00:00;16,5;101877;80;0,0092;0,0;2,1;37;4,0;1,7;1,2;191;1;8;18,3;19,0;19,6;17,1;14,1;11,8;13,0;11,0;-248,8;15,8;1635
2022-05-07 16:00:00;18,1;101880;71;0,009;0,0;2,8;11;5,0;2,69;0,56;266;0;0;18,3;19,1;19,6;17,1;14,2;11,9;13,0;11,0;-243,0;15,9;1537
2022-05-07 17:00:00;18,4;101897;68;0,0089;0,0;2,5;137;4,6;2,17;0,79;89;0;0;18,3;19,1;19,7;17,1;14,1;12,0;13,1;11,0;-237,1;15,8;1528
2022-05-07 18:00:00;17,2;101947;70;0,0084;0,0;3,2;38;6,8;2,46;1,98;16;1;10;18,3;19,1;19,8;17,1;13,9;12,1;13,1;11,0;-231,8;15,7;1531
2022-05-07 19:00:00;16,1;102030;74;0,0083;0,0;2,4;31;4,6;2,07;1,22;2;7;12;18,3;19,1;19,8;17,1;13,7;12,2;13,1;11,1;-220,9;15,8;1533
2022-05-07 20:00:00;15,3;102120;80;0,0086;0,0;2,3;79;4,2;0,38;2,24;0;0;0;18,3;19,1;19,9;17,1;13,6;12,2;13,0;11,1;-217,8;15,8;1500
2022-05-07 21:00:00;14,7;102157;85;0,0087;0,0;1,9;63;3,5;0,8;1,6;0;0;0;18,3;19,1;19,9;17,1;13,4;12,3;13,0;11,1;-213,0;15,9;1521
2022-05-07 22:00:00;14,1;102187;83;0,0081;0,0;3,1;30;5,9;2,68;1,61;0;0;0;18,3;19,1;19,9;17,1;13,3;12,3;12,9;11,1;-205,8;15,9;1547
2022-05-07 23:00:00;12,4;102223;82;0,0072;0,0;3,3;37;6,7;2,58;1,97;0;0;0;18,3;19,2;20,0;17,1;13,2;12,3;12,9;11,2;-203,7;15,9;1537
2022-05-08 00:00:00;11,0;102267;88;0,0071;0,0;3,1;45;6,1;2,17;2,18;0;0;0;18,3;19,2;20,0;17,1;13,0;12,3;12,8;11,2;-196,2;16,2;1438
2022-05-08 01:00:00;10,2;102283;89;0,0068;0,0;3,1;50;6,2;1,93;2,38;0;0;0;18,3;19,2;20,0;17,1;12,9;12,3;12,7;11,2;-189,4;16,3;1518
2022-05-08 02:00:00;9,8;102300;90;0,0066;0,0;2,5;46;4,5;1,72;1,8;0;0;0;18,3;19,2;20,1;17,1;12,7;12,3;12,6;11,2;-187,4;16,6;1447
2022-05-08 03:00:00;9,4;102293;89;0,0064;0,0;2,8;61;5,0;1,27;2,38;0;0;0;18,4;19,2;20,1;17,1;12,6;12,3;12,5;11,3;-182,6;16,7;1472
2022-05-08 04:00:00;8,5;102303;88;0,0059;0,0;2,3;52;3,9;1,41;1,84;32;0;0;18,4;19,2;20,1;17,1;12,4;12,2;12,4;11,3;-179,4;16,7;1508
2022-05-08 05:00:00;8,7;102350;90;0,0061;0,0;2,6;59;6,2;1,29;2,21;123;0;0;18,4;19,2;20,1;17,1;12,2;12,2;12,3;11,3;-175,2;16,5;1477
2022-05-08 06:00:00;9,5;102390;86;0,0062;0,0;3,6;63;6,8;1,63;3,25;265;0;0;18,5;19,2;20,1;17,1;12,2;12,2;12,2;11,3;-169,1;16,4;1508
2022-05-08 07:00:00;10,2;102423;82;0,0062;0,0;3,6;60;6,0;1,81;3,12;381;0;0;18,5;19,2;20,1;17,1;12,2;12,1;12,2;11,3;-165,3;16,2;1543
2022-05-08 08:00:00;11,5;102443;77;0,0063;0,0;3,0;63;5,6;1,3;2,65;509;0;0;18,5;19,2;20,1;17,1;12,3;12,1;12,1;11,3;-163,3;16,1;1392